Overview Statistics Trail Chart Weather Telemetry Raw packets
 

This is the latest recevied weather packets stored in our database for station/object K0APR. If no packets are shown the sender has not sent any weather packets the latest 10 day(s).

<< 99 100 101 102 103 104 105 >>
Time Temp. Humidity Pressure Rain* Wind** Luminosity Snow
1787923282 17.22° C 84% 1020.3 hPa 0 mm - 116 W/m² -
1787922982 16.67° C 84% 1020.6 hPa 0 mm - 103 W/m² -
1787922681 16.67° C 85% 1020.3 hPa 0 mm - 108 W/m² -
1787922381 16.11° C 86% 1020.3 hPa 0 mm - 85 W/m² -
1787922079 16.11° C 86% 1020.3 hPa 0 mm - 64 W/m² -
1787921773 15.56° C 88% 1020.6 hPa 0 mm - 59 W/m² -
1787921473 15.56° C 89% 1020.3 hPa 0 mm - 54 W/m² -
1787921167 15° C 90% 1020.3 hPa 0 mm - 50 W/m² -
1787920863 15° C 91% 1020.3 hPa 0 mm - 48 W/m² -
1787920562 14.44° C 92% 1020.3 hPa 0 mm - 39 W/m² -
1787920258 13.89° C 93% 1020.3 hPa 0 mm - 37 W/m² -
1787919955 13.33° C 94% 1020.6 hPa 0 mm - 33 W/m² -
1787919655 13.33° C 95% 1020.3 hPa 0 mm - 29 W/m² -
1787919350 12.78° C 95% 1020.3 hPa 0 mm - 19 W/m² -
1787919046 12.78° C 95% 1020.3 hPa 0 mm - 16 W/m² -
1787918740 12.78° C 96% 1020.3 hPa 0 mm - 15 W/m² -
1787918440 12.78° C 96% 1020.6 hPa 0 mm - 12 W/m² -
1787918133 12.78° C 96% 1020.3 hPa 0 mm - 8 W/m² -
1787917833 12.78° C 96% 1020.6 hPa 0 mm - 5 W/m² -
1787917535 12.78° C 96% 1020.6 hPa 0 mm - 2 W/m² -
1787917226 12.78° C 96% 1020.3 hPa 0 mm - 2 W/m² -
1787916926 12.78° C 95% 1020.3 hPa 0 mm - 0 W/m² -
1787916626 12.78° C 95% 1020.3 hPa 0 mm - 0 W/m² -
1787916320 12.78° C 95% 1020.3 hPa 0 mm - 0 W/m² -
1787916015 12.78° C 95% 1020.3 hPa 0 mm - 0 W/m² -

* Rain latest hour (hover to see other rain measurements)
** Current wind speed in m/s (hover to see current wind gust speed)